Weather History for Pine River, MN

Change the Weather History Date:

Saturday, November 10, 2012

  Actual Average Record
Temperature  
Mean Temperature 38 °F -  
Max Temperature 44 °F 38 °F 60 °F (2010)
Min Temperature 33 °F 23 °F 15 °F (2008)
Degree Days  
Heating Degree Days 26    
Moisture  
Dew Point 36 °F    
Average Humidity 97    
Maximum Humidity 100    
Minimum Humidity 87    
Precipitation  
Precipitation 1.11 in - - ()
Sea Level Pressure  
Sea Level Pressure 29.70 in    
Wind  
Wind Speed 12 mph (ESE)    
Max Wind Speed 18 mph    
Max Gust Speed 25 mph    
Visibility 4 miles    
Events Fog , Rain , Snow , Thunderstorm    
Averages and records for this station are not official NWS values.
T = Trace of Precipitation, MM = Missing Value Source: NWS Daily Summary

Daily Weather History Graph

Daily Weather History Graph

Search for Another Location

Airport:

Trip Planner

Search our weather history database for the weather conditions in past years. The results will help you decide how hot, cold, wet, or windy it might be!

Date:

Astronomy

Nov. 10, 2012 Rise Set
Actual Time 7:13 AM CST 4:48 PM CST
Civil Twilight 6:41 AM CST 5:21 PM CST
Nautical Twilight 6:04 AM CST 5:57 PM CST
Astronomical Twilight 5:29 AM CST 6:33 PM CST
Moon 3:07 AM CST (11/10) 2:46 PM CST (11/10)
Length of Visible Light 10h 40m
Length of Day
9h 35m
Waning Crescent, 14% of the Moon is Illuminated
Nov 10
Waning Crescent
Nov 13
New
Nov 20
First Quarter
Nov 28
Full
Dec 6
Last Quarter

Hourly Weather History & Observations

Time (CST) Temp. Windchill Dew Point Humidity Pressure Visibility Wind Dir Wind Speed Gust Speed Precip Events Conditions
12:12 AM 35.6 °F 26.6 °F 32.0 °F 87% 29.98 in 10.0 mi East 13.8 mph 21.9 mph N/A   Light Drizzle
12:33 AM 35.6 °F 25.9 °F 32.0 °F 87% 29.96 in 10.0 mi East 16.1 mph 21.9 mph N/A   Overcast
12:53 AM 35.6 °F 26.6 °F 32.0 °F 87% 29.97 in 10.0 mi East 13.8 mph 20.7 mph N/A   Overcast
1:13 AM 35.6 °F 27.1 °F 32.0 °F 87% 29.96 in 10.0 mi East 12.7 mph 18.4 mph N/A   Overcast
1:33 AM 35.6 °F 27.5 °F 32.0 °F 87% 29.95 in 10.0 mi East 11.5 mph 18.4 mph N/A   Overcast
1:53 AM 35.6 °F 25.9 °F 33.8 °F 93% 29.93 in 10.0 mi East 16.1 mph 20.7 mph N/A   Overcast
2:13 AM 35.6 °F 25.5 °F 33.8 °F 93% 29.92 in 10.0 mi East 17.3 mph 24.2 mph N/A   Overcast
2:31 AM 35.6 °F 26.6 °F 33.8 °F 93% 29.92 in 10.0 mi East 13.8 mph 17.3 mph N/A   Overcast
2:53 AM 35.6 °F 28.0 °F 33.8 °F 93% 29.92 in 10.0 mi East 10.4 mph 20.7 mph N/A   Overcast
3:13 AM 35.6 °F 26.2 °F 33.8 °F 93% 29.91 in 10.0 mi East 15.0 mph 23.0 mph N/A   Overcast
3:32 AM 35.6 °F 25.5 °F 33.8 °F 93% 29.89 in 10.0 mi ESE 17.3 mph 20.7 mph N/A   Overcast
3:52 AM 35.6 °F 26.2 °F 33.8 °F 93% 29.89 in 7.0 mi East 15.0 mph 21.9 mph N/A   Overcast
4:12 AM 35.6 °F 27.1 °F 33.8 °F 93% 29.88 in 7.0 mi East 12.7 mph 20.7 mph N/A   Overcast
4:32 AM 35.6 °F 26.2 °F 33.8 °F 93% 29.87 in 7.0 mi East 15.0 mph 18.4 mph N/A   Overcast
4:53 AM 35.6 °F 27.5 °F 33.8 °F 93% 29.86 in 10.0 mi East 11.5 mph - N/A   Overcast
5:13 AM 35.6 °F 27.1 °F 33.8 °F 93% 29.86 in 7.0 mi East 12.7 mph 18.4 mph N/A   Overcast
5:52 AM 35.6 °F 26.6 °F 33.8 °F 93% 29.84 in 2.0 mi East 13.8 mph 23.0 mph N/A Rain Light Rain
6:12 AM 35.6 °F 26.6 °F 33.8 °F 93% 29.82 in 2.5 mi East 13.8 mph 23.0 mph N/A Rain Light Rain
6:32 AM 35.6 °F 25.9 °F 33.8 °F 93% 29.81 in 3.0 mi East 16.1 mph 25.3 mph N/A Rain Light Rain
6:53 AM 33.8 °F 23.9 °F 33.8 °F 100% 29.81 in 3.0 mi East 15.0 mph 21.9 mph N/A Rain Light Rain
7:13 AM 35.6 °F 26.6 °F 33.8 °F 93% 29.80 in 10.0 mi East 13.8 mph 20.7 mph N/A Thunderstorm Overcast
7:33 AM 35.6 °F 28.6 °F 33.8 °F 93% 29.81 in 3.0 mi East 9.2 mph 20.7 mph N/A   Drizzle
7:52 AM 33.8 °F 24.3 °F 33.8 °F 100% 29.79 in 2.5 mi East 13.8 mph 17.3 mph N/A Rain Light Rain
8:13 AM 33.8 °F 30.8 °F 33.8 °F 100% 29.82 in 2.5 mi SE 3.5 mph - 0.02 in Rain , Thunderstorm Thunderstorms and Rain
8:32 AM 33.8 °F 24.8 °F 33.8 °F 100% 29.79 in 1.8 mi East 12.7 mph - 0.39 in Snow , Thunderstorm Light Thunderstorms and Snow
8:53 AM 33.8 °F 24.8 °F 33.8 °F 100% 29.77 in 1.2 mi East 12.7 mph 19.6 mph 0.13 in Rain Heavy Rain
9:12 AM 33.8 °F 22.8 °F 33.8 °F 100% 29.75 in 5.0 mi East 18.4 mph - 0.35 in Rain , Thunderstorm Light Thunderstorms and Rain
9:32 AM 35.6 °F 27.5 °F 33.8 °F 93% 29.75 in 2.0 mi East 11.5 mph 18.4 mph 0.35 in   Light Drizzle
9:53 AM 35.6 °F 26.6 °F 35.6 °F 100% 29.74 in 1.8 mi East 13.8 mph 18.4 mph N/A   Light Drizzle
10:12 AM 35.6 °F 26.2 °F 35.6 °F 100% 29.72 in 1.8 mi East 15.0 mph 20.7 mph N/A   Light Drizzle
10:32 AM 35.6 °F 28.0 °F 35.6 °F 100% 29.72 in 1.5 mi East 10.4 mph 16.1 mph N/A   Overcast
10:52 AM 35.6 °F 28.0 °F 35.6 °F 100% 29.71 in 1.2 mi East 10.4 mph 17.3 mph N/A   Overcast
11:13 AM 35.6 °F 26.2 °F 35.6 °F 100% 29.71 in 1.5 mi East 15.0 mph 19.6 mph N/A   Overcast
11:33 AM 35.6 °F 27.5 °F 35.6 °F 100% 29.69 in 1.8 mi East 11.5 mph 19.6 mph N/A   Overcast
11:52 AM 37.4 °F 30.3 °F 37.4 °F 100% 29.69 in 1.5 mi East 10.4 mph 16.1 mph N/A   Overcast
12:13 PM 37.4 °F 31.4 °F 37.4 °F 100% 29.68 in 1.2 mi East 8.1 mph - N/A   Light Drizzle
12:33 PM 37.4 °F 30.3 °F 37.4 °F 100% 29.67 in 1.0 mi East 10.4 mph - N/A   Light Drizzle
12:52 PM 37.4 °F 30.8 °F 37.4 °F 100% 29.66 in 1.0 mi East 9.2 mph - N/A   Light Drizzle
1:12 PM 37.4 °F 29.3 °F 37.4 °F 100% 29.65 in 1.2 mi East 12.7 mph - N/A   Light Drizzle
1:33 PM 37.4 °F 30.8 °F 37.4 °F 100% 29.64 in 1.5 mi East 9.2 mph - N/A   Drizzle
1:53 PM 37.4 °F 29.3 °F 37.4 °F 100% 29.61 in 1.5 mi East 12.7 mph - N/A   Drizzle
2:13 PM 37.4 °F 29.8 °F 37.4 °F 100% 29.61 in 1.5 mi East 11.5 mph 18.4 mph N/A Rain Light Rain
2:33 PM 37.4 °F 29.8 °F 37.4 °F 100% 29.60 in 1.5 mi ESE 11.5 mph 19.6 mph N/A   Overcast
2:53 PM 39.2 °F 31.2 °F 39.2 °F 100% 29.60 in 1.5 mi East 13.8 mph 18.4 mph N/A   Overcast
3:13 PM 39.2 °F 32.5 °F 39.2 °F 100% 29.59 in 1.2 mi ESE 10.4 mph 19.6 mph N/A   Drizzle
3:33 PM 39.2 °F 31.6 °F 39.2 °F 100% 29.58 in 1.5 mi ESE 12.7 mph 19.6 mph N/A   Light Drizzle
3:53 PM 39.2 °F 32.0 °F 39.2 °F 100% 29.59 in 1.5 mi ESE 11.5 mph 16.1 mph N/A   Light Drizzle
4:13 PM 39.2 °F 33.0 °F 39.2 °F 100% 29.58 in 4.0 mi East 9.2 mph - N/A   Light Drizzle
4:31 PM 39.2 °F 32.5 °F 39.2 °F 100% 29.57 in 7.0 mi East 10.4 mph - N/A   Overcast
4:53 PM 39.2 °F 33.0 °F 39.2 °F 100% 29.57 in 7.0 mi ESE 9.2 mph - N/A   Overcast
5:13 PM 39.2 °F 33.6 °F 39.2 °F 100% 29.57 in 4.0 mi East 8.1 mph - N/A   Overcast
5:33 PM 41.0 °F 35.2 °F 41.0 °F 100% 29.57 in 2.5 mi ESE 9.2 mph 16.1 mph N/A   Overcast
5:52 PM 41.0 °F 35.8 °F 41.0 °F 100% 29.57 in 1.5 mi ESE 8.1 mph 16.1 mph N/A   Overcast
6:13 PM 41.0 °F 35.2 °F 41.0 °F 100% 29.56 in 1.2 mi ESE 9.2 mph - N/A   Overcast
6:32 PM 41.0 °F 37.1 °F 41.0 °F 100% 29.58 in 1.2 mi SE 5.8 mph - N/A   Overcast
6:53 PM 42.8 °F 38.6 °F 42.8 °F 100% 29.57 in 1.2 mi ESE 6.9 mph - N/A   Overcast
7:13 PM 42.8 °F 38.0 °F 42.8 °F 100% 29.55 in 0.8 mi ESE 8.1 mph - N/A   Overcast
7:33 PM 42.8 °F 38.6 °F 42.8 °F 100% 29.54 in 0.5 mi ESE 6.9 mph - N/A Fog Fog
7:52 PM 42.8 °F 38.6 °F 42.8 °F 100% 29.52 in 0.5 mi ESE 6.9 mph - N/A Fog Fog
8:13 PM 42.8 °F 37.5 °F 42.8 °F 100% 29.51 in 0.5 mi East 9.2 mph - N/A Fog Fog
8:32 PM 42.8 °F 37.5 °F - N/A% 29.49 in 0.5 mi ESE 9.2 mph - N/A Fog Fog
8:53 PM 42.8 °F 38.6 °F - N/A% 29.49 in 0.5 mi East 6.9 mph - N/A Rain , Thunderstorm Light Thunderstorms and Rain
9:13 PM 42.8 °F - - N/A% 29.51 in 0.5 mi Calm Calm - 0.01 in Rain , Thunderstorm Thunderstorms and Rain
9:32 PM 42.8 °F 39.3 °F - N/A% 29.54 in 1.8 mi SSE 5.8 mph - 0.19 in Rain , Thunderstorm Heavy Thunderstorms and Rain
10:13 PM 42.8 °F 36.2 °F - N/A% 29.46 in 5.0 mi East 12.7 mph - 0.13 in Rain Rain
10:32 PM 44.6 °F 39.7 °F - N/A% 29.46 in 5.0 mi SE 9.2 mph - 0.18 in Rain Light Rain
11:13 PM 44.6 °F 40.7 °F - N/A% 29.46 in 4.0 mi SSE 6.9 mph - N/A   Overcast
11:32 PM 44.6 °F 40.7 °F - N/A% 29.46 in 3.0 mi SE 6.9 mph - N/A   Drizzle
11:51 PM 44.6 °F 40.7 °F - N/A% 29.47 in 4.0 mi SSE 6.9 mph - N/A   Overcast